Location: Ballingbuur
(53.0000°N, 5.7667°E)
Time: 05:50:39
(UTC+00:00)

ERBS - Pass Details

Date: 29 November 2020
Orbit: 403 x 423 km, 57.0° (Epoch: 23 January)

Event Time Altitude Azimuth Distance (km) Brightness Sun altitude
Exits shadow 04:39:10 33° 54° (NE) 728 3.8 -23.9°
Drops below altitude 10° 04:41:09 10° 63° (ENE) 1,495 5.8 -23.6°
Sets 04:43:16 0° 65° (ENE) 2,365 7.0 -23.3°
